www.pogodaiklimat.ru

Погода и климат >> Архив погоды >> Южная Африка >> Патенсие


ПОГОДА в Патенсие

  • Прогноз погоды в Патенсие
  • Монитор погоды в Патенсие

АРХИВ ПОГОДЫ в Патенсие

Время (UTC), дата Ветер
(напр.,м/с)
 
Видим.   Явления Облачность Т
(С)
Тd
(С)
f
(%)
Тe
(С)
Тes
(С)
Комфортность P
(гПа)
Po
(гПа)
Тmin
(С)
Tmax
(С)
R
(мм)
R24
(мм)
S
(см)
21 9.09 В 2 н/о н/о +17.9 +14.4 80 +19 +19 1017.5 1006.3 +17.2 +35.5
00 10.09 штиль 0 н/о н/о +17.8 +14.1 79 +18 +18 1015.9 1004.7 +17.2 +35.5
03 10.09 штиль 0 н/о н/о +17.5 +13.4 77 +17 +17 1015.0 1003.8 +17.2 +35.5
06 10.09 штиль 0 н/о н/о +16.3 +13.4 83 +16 +16 1014.7 1003.4 +16.0
09 10.09 Ю 1 н/о н/о +23.4 +13.7 54 +27 +27 душно 1012.5 1001.5 +16.0 +23.5
12 10.09 ЮВ 3 н/о н/о +26.6 +15.5 51 +30 +30 душно 1009.8 999.0 +16.0 +29.9
15 10.09 ЮВ 2 н/о н/о +21.7 +15.4 67 +25 +25 комфорт 1010.1 999.1 +21.6 +29.9
18 10.09 штиль 0 н/о н/о +18.6 +15.5 82 +19 +19 1012.3 1001.2 +18.1 +29.9
21 10.09 штиль 0 н/о н/о +18.2 +15.1 82 +18 +18 1013.9 1002.7 +18.1 +29.9
00 11.09 штиль 0 н/о н/о +18.4 +15.1 81 +19 +19 1014.1 1002.9 +18.1 +29.9
03 11.09 штиль 0 н/о н/о +18.3 +14.4 78 +19 +19 1014.7 1003.5 +18.1 +29.9
06 11.09 штиль 0 н/о н/о +17.9 +14.0 78 +18 +18 1013.9 1002.7 +17.7
09 11.09 ЮЗ 4 н/о н/о +22.8 +13.7 56 +26 +26 жарко 1014.0 1003.0 +17.7 +24.0
12 11.09 ЮВ 2 н/о н/о +19.5 +12.8 65 +21 +21 комфорт 1014.1 1003.0 +17.7 +24.0
15 11.09 ЮВ 2 н/о н/о +19.3 +13.1 67 +21 +21 комфорт 1013.2 1002.1 +19.3 +24.0
18 11.09 В 1 н/о н/о +17.5 +13.2 76 +19 +19 1015.5 1004.3 +17.5 +24.0
21 11.09 штиль 0 н/о н/о +16.0 +12.9 82 +16 +16 1015.6 1004.3 +16.0 +24.0
00 12.09 штиль 0 н/о н/о +15.7 +12.4 81 +16 +16 1013.9 1002.6 +15.7 +24.0
03 12.09 С 2 н/о н/о +14.2 +11.9 86 +14 +14 1010.9 999.6 +13.8 +24.0
06 12.09 штиль 0 н/о н/о +14.0 +11.8 87 +14 +14 1014.0 1002.7 +13.0
09 12.09 СЗ 2 н/о н/о +22.3 +12.6 54 +25 +25 комфорт 1013.0 1002.0 +13.0 +22.3
12 12.09 З 2 н/о н/о +27.5 +9.1 31 +28 +28 жарко 1009.0 998.2 +13.0 +27.7 1
15 12.09 В 2 н/о н/о +17.1 +14.7 86 +18 +18 1012.8 1001.6 +17.0 +27.7
18 12.09 Ю 1 н/о н/о +15.7 +11.7 77 +16 +16 1016.1 1004.8 +15.7 +27.7 2
21 12.09 СВ 1 н/о н/о +15.2 +11.0 76 +16 +16 1017.8 1006.5 +15.0 +27.7
00 13.09 СЗ 2 н/о н/о +13.8 +10.2 79 +14 +14 1018.4 1007.0 +13.6 +27.7 2
03 13.09 С 3 н/о н/о +12.6 +7.5 71 +11 +11 1018.9 1007.5 +12.2 +27.7
06 13.09 С 1 н/о н/о +12.6 +4.6 58 +13 +13 1020.6 1009.1 +10.1 2
09 13.09 З 6 н/о н/о +17.3 +3.7 40 +17 +17 1021.0 1009.7 +10.1 +17.9
12 13.09 ЮЗ 5 н/о н/о +17.9 +4.2 40 +18 +18 1020.4 1009.1 +10.1 +19.6
15 13.09 З 3 н/о н/о +16.1 +6.0 51 +16 +16 1021.6 1010.3 +16.1 +19.6
18 13.09 СЗ 2 н/о н/о +13.8 +5.2 56 +13 +13 1023.1 1011.7 +13.7 +19.6
21 13.09 С 1 н/о н/о +13.1 +4.8 57 +13 +13 1024.1 1012.6 +12.9 +19.6
00 14.09 штиль 0 н/о н/о +10.0 +4.4 68 +10 +10 1023.7 1012.1 +10.0 +19.6
03 14.09 С 1 н/о н/о +8.5 +4.5 76 +8 +8 1023.2 1011.5 +8.1 +19.6
06 14.09 штиль 0 н/о н/о +10.6 +5.9 73 +10 +10 1024.0 1012.4 +8.1
09 14.09 Ю 1 н/о н/о +16.9 +7.3 53 +18 +18 1023.0 1011.7 +8.1 +16.9
12 14.09 ЮВ 1 н/о н/о +20.4 +8.2 45 +23 +23 комфорт 1019.7 1008.5 +8.1 +20.4
15 14.09 ЮВ 2 н/о н/о +19.4 +9.4 52 +21 +21 комфорт 1018.9 1007.7 +19.3 +21.2
18 14.09 штиль 0 н/о н/о +14.7 +8.7 67 +15 +15 1019.8 1008.4 +14.7 +21.2
21 14.09 штиль 0 н/о н/о +13.9 +8.7 71 +14 +14 1019.8 1008.4 +13.7 +21.2
00 15.09 С 2 н/о н/о +11.9 +7.8 76 +11 +11 1018.7 1007.2 +11.8 +21.2
03 15.09 С 2 н/о н/о +8.9 +6.5 85 +8 +8 1017.7 1006.1 +8.8 +21.2
06 15.09 штиль 0 н/о н/о +9.7 +7.3 85 +9 +9 1018.2 1006.6 +8.4
09 15.09 З 1 н/о н/о +23.9 +5.9 31 +24 +24 комфорт 1016.7 1005.7 +8.4 +23.9
12 15.09 В 1 н/о н/о +27.7 +4.3 22 +26 +26 жарко 1014.5 1003.7 +8.4 +28.6
15 15.09 ЮВ 3 н/о н/о +23.0 +3.7 28 +23 +23 комфорт 1015.8 1004.8 +23.0 +28.6
18 15.09 штиль 0 н/о н/о +19.1 +2.1 32 +19 +19 1017.7 1006.5 +19.1 +28.6
21 15.09 С 2 н/о н/о +16.0 +4.1 45 +16 +16 1018.0 1006.7 +15.0 +28.6
00 16.09 штиль 0 н/о н/о +12.4 +3.1 53 +12 +12 1017.2 1005.8 +12.4 +28.6
03 16.09 штиль 0 н/о н/о +10.3 +3.1 61 +10 +10 1016.8 1005.3 +10.2 +28.6
06 16.09 СЗ 1 н/о н/о +10.9 +4.4 64 +11 +11 1018.7 1007.2 +9.9
09 16.09 Ю 1 н/о н/о +24.5 +2.8 24 +24 +24 комфорт 1018.2 1007.2 +9.9 +24.5
12 16.09 ЮВ 3 н/о н/о +26.3 +12.2 42 +28 +28 жарко 1017.2 1006.3 +9.9 +27.1
15 16.09 Ю 2 н/о н/о +22.3 +13.7 58 +25 +25 комфорт 1018.3 1007.2 +22.3 +27.1
18 16.09 ЮВ 1 н/о н/о +18.5 +13.2 71 +20 +20 1020.4 1009.2 +18.5 +27.1

 

Местоположение метеостанции Патенсие (Южная Африка): широта -33.76 долгота 24.82 высота над уровнем моря 85 м.

В архиве по умолчанию представлена погода в Патенсие за последнюю неделю. Архивные данные за месяц целиком и за предыдущие месяцы, начиная с января 2011 года, Вы можете получить, выбрав интересующий диапазон дат из раскрывающегося списка и нажав кнопку "Ввод!".


*Определитесь, кто Вы:
робот инопланетянин человек

Внимание! Время в таблицах - всемирное. Для получения местного времени необходимо прибавить поправку, которая равна 2 ч.

Смотрите также архив погоды в соседних городах и на ближайших метеорологических станциях:

Погода на Мысе St. Francis (Южная Африка) (50 км)
Погода в Эйтенхахе (Южная Африка) (58 км)
Погода в Порт-Элизабет (Южная Африка) (78 км)
Погода в Нгкура (Южная Африка) (79 км)
Погода в Джоубертине (Южная Африка) (89 км)
Погода в Парке Tsitsikamma (Южная Африка) (89 км)
Погода в Парке Addo Elephant (Южная Африка) (93 км)
Погода в Сомерсет-Ист (Южная Африка) (97 км)
Погода в Уиллоуморе (Южная Африка) (134 км)
Погода на Острове Бёрд (Южная Африка) (136 км)

Пояснения к столбцам:

Ветер - указаны скорость ветра в м/с - средняя за 10 мин, порывы в срок и между сроками (в фигурных скобках) и направление, откуда дует ветер: С - северный, СВ - северо-восточный, В - восточный, ЮВ - юго-восточный, Ю - южный, ЮЗ - юго-западный, З - западный, СЗ - северо-западный.
Видимость - горизонтальная дальность видимости в метрах или километрах. При видимости от 1 до 10 км при отсутствии осадков обычно наблюдается дымка, при ухудшении видимости до 1 км и менее - туман. В сухую погоду видимость может ухудшаться дымом, пылью или мглою.
Явления - указаны атмосферные явления, наблюдавшиеся в срок или в последний час перед сроком; фигурными скобками обозначены явления, наблюдавшиеся между сроками (за 1-3 часа до срока); квадратными скобками обозначены град или гололедные отложения с указанием их диаметра в мм.
Облачность - указаны через наклонную черту общая и нижняя облачность в баллах и высота нижней границы облаков в метрах; квадратными скобками обозначены формы облаков: Ci - перистые, Cs - перисто-слоистые, Cc - перисто-кучевые, Ac - высококучевые, As - высокослоистые, Sc - слоисто-кучевые, Ns - слоисто-дождевые, Cu - кучевые, Cb - кучево-дождевые. Подробнее классификацию облаков см. в Атласе облаков (PDF).
T - Температура воздуха - температура, измеренная на высоте 2 м над землей.
Td - Температура точки росы - температура, при понижении до которой содержащийся в воздухе водяной пар достигнет насыщения.
f - Относительная влажность воздуха - влажноcть воздуха, измеренная на высоте 2 м над землей.
Te - Эффективная температура - температура, которую ощущает одетый по сезону человек в тени. Характеристика душности погоды. При расчете учитывается влияние влажности воздуха и скорости ветра на теплоощущения человека.
Tes - Эффективная температура на солнце - температура, которую ощущает человек, с поправкой на солнечный нагрев. Характеристика знойности погоды. Зависит от высоты солнца над горизонтом, облачности и скорости ветра. Ночью, в пасмурную погоду, а также при ветре 12 м/с и более поправка равна нулю.
P - Атмосферное давление - приведенное к уровню моря атмосферное давление.
Po - Атмосферное давление - измеренное на уровне метеостанции атмосферное давление.
Tmin - Минимальная температура - минимум температуры воздуха на высоте 2 м над землей.
Tmax - Максимальная температура - максимум температуры воздуха на высоте 2 м над землей.
R - Количество осадков - Количество выпавших осадков за период времени, мм. При наведении курсора мыши на число - период времени, за который выпало указанное количество осадков.
R24 - Количество осадков - Количество выпавших осадков за 24 часа, мм.
S - Снежный покров - Высота снежного покрова, см. При наведении курсора мыши на число - состояние снежного покрова и степень покрытия местности в баллах.